Home > Weather > Saguenay > Past weeks

Flag for Canada Past Weather in Saguenay, Quebec, Canada — Yesterday and Last 2 Weeks

Now
60 °F

Cool.


Feels Like: 59 °F
Forecast: 54 / 71 °F
Wind: 8 mph from West

Location: Jonquiere Airport

Current Time: Jul 30, 2016 at 7:26:23 AM

Latest Report: Jul 30, 2016 at 7:00 AM


Visibility: N/A

Pressure: 30.06 "Hg

Humidity: 85%

Dew Point: 55 °F

Location of SaguenayLocation

Past Weather in Saguenay — Graph

°F

Saguenay Temperature Yesterday

Maximum temperature yesterday: 70 °F (at 5:00 PM)
Minimum temperature yesterday: 60 °F (at 5:00 AM)
Average temperature yesterday: 64 °F

High & Low Weather Summary for the Past Weeks

 TemperatureHumidityPressure
High80 °F (Jul 27, 1:00 PM)98% (Jul 21, 5:00 AM)30.13 "Hg (Jul 21, 5:00 AM)
Low49 °F (Jul 16, 6:00 AM)35% (Jul 16, 4:00 PM)29.57 "Hg (Jul 22, 3:00 AM)
Average65 °F77%29.89 "Hg
* Reported Jul 15 6:00 AM — Jul 30 6:00 AM, Saguenay, Weather by CustomWeather, © 2016

Note: Actual official high and low records may vary slightly from our data, if they occured in-between our weather recording intervals... More about our weather records

Advertising

Saguenay Weather History for the Previous 24 Hours

Scroll right to see more
 ConditionsComfort  
Time TempWeatherWind HumidityBarometerVisibility
6:00 AM
Sat, Jul 30
59 °FCool.8 mph85%30.04 "HgN/A
5:00 AM59 °FCool.7 mph87%30.03 "HgN/A
4:00 AM59 °FCool.5 mph88%30.02 "HgN/A
3:00 AM59 °FCool.7 mph89%30.02 "HgN/A
2:00 AM59 °FCool.7 mph89%30.01 "HgN/A
1:00 AM59 °FCool.5 mph90%30.02 "HgN/A
12:00 AM58 °FCool.2 mph90%30.02 "HgN/A
11:00 PM
Fri, Jul 29
61 °FCool.No wind84%30.01 "HgN/A
10:00 PM63 °FMild.7 mph74%30.01 "HgN/A
9:00 PM64 °FMild.9 mph70%30.01 "HgN/A
8:00 PM64 °FMild.8 mph68%30.01 "HgN/A
7:00 PM68 °FMild.8 mph64%29.99 "HgN/A
6:00 PM67 °FMild.13 mph65%29.99 "HgN/A
5:00 PM70 °FMild.10 mph55%29.98 "HgN/A
4:00 PM68 °FMild.12 mph62%29.98 "HgN/A
3:00 PM68 °FMild.8 mph64%29.99 "HgN/A
2:00 PM66 °FMild.7 mph65%30.00 "HgN/A
1:00 PM66 °FMild.8 mph65%30.00 "HgN/A
12:00 PM65 °FMild.9 mph69%30.00 "HgN/A
11:00 AM65 °FMild.9 mph69%30.01 "HgN/A
10:00 AM63 °FMild.6 mph77%30.01 "HgN/A
9:00 AM63 °FMild.6 mph81%30.01 "HgN/A
8:00 AM60 °FCool.7 mph83%30.00 "HgN/A
7:00 AM60 °FCool.6 mph86%29.99 "HgN/A
Weather by CustomWeather, © 2016

See weather overviewHow to use our weather pages